Wetbulb
50.76 50.89 51.16 50.75 49.89 49.66 41.56 30.64 21.94 34.41 33.24 23.81 22.37 17.77 20.69 28.54 25.91 26.56 24.49 22.78 21.07 18.76 19.94 16.36 14.76 14.04 19.66 25.03 22.99 19.59 23.04 19.92 14.59 18.27 21.60 19.77 14.99 10.88 14.11 14.34 18.11 18.68 12.65 6.24
50.53 50.99 50.56 51.25 49.82 48.52 35.77 27.05 28.46 34.02 31.25 16.49 17.85 21.66 23.64 25.72 25.04 24.71 23.77 21.98 23.89 22.21 18.68 13.15 15.39 17.71 24.28 24.12 21.53 22.04 22.59 16.80 10.96 9.01 14.59 16.69 11.51 11.05 12.06 15.33 17.04 12.30 12.22 5.42
50.75 50.88 50.97 50.81 49.42 48.41 32.97 24.28 20.27 26.28 25.67 24.70 18.19 20.07 20.18 21.27 27.17 25.37 25.36 23.52 23.82 21.17 17.05 18.43 13.39 14.74 22.56 24.41 23.63 30.59 24.87 17.20 12.07 6.63 5.60 10.80 6.78 7.75 10.01 15.56 13.15 9.91 7.32 4.40
51.24 51.20 50.99 50.76 48.78 46.98 34.36 24.54 21.07 25.43 20.11 22.65 19.74 20.22 20.65 20.32 20.24 24.55 24.22 20.58 21.40 19.16 11.94 14.34 14.79 18.58 19.55 22.69 25.41 19.27 15.79 13.66 13.75 13.10 13.10 11.60 7.80 6.82 5.36 4.93 8.09 8.54 5.94 2.85
51.33 51.17 50.86 50.84 49.41 44.27 34.78 28.79 25.91 23.62 25.89 23.77 20.44 19.77 17.65 21.13 21.18 21.17 19.44 19.24 22.48 18.31 10.68 14.78 15.11 18.40 17.49 16.69 19.05 9.78 12.87 12.62 16.11 11.66 15.94 13.02 6.55 7.45 6.58 5.27 4.39 5.80 9.38 5.73
51.38 51.17 50.89 50.87 49.55 44.27 37.32 37.08 37.34 32.65 23.83 20.49 17.58 18.53 19.96 22.53 24.34 23.89 25.20 23.44 20.09 18.73 20.99 22.98 23.48 22.96 21.16 15.60 12.94 13.74 3.79 4.65 8.23 8.81 15.09 15.12 5.55 3.75 4.85 3.79 4.49 5.05 0.49 5.44
51.34 51.16 51.01 50.94 50.60 45.73 41.67 39.52 36.72 29.15 18.93 21.54 23.30 23.23 23.87 22.87 23.67 22.64 24.77 23.61 19.44 23.81 27.60 25.02 23.07 19.52 13.21 14.23 13.31 12.58 7.51 -0.67 10.68 0.77 -0.08 -4.39 4.27 11.38 8.14 4.01 5.31 6.42 6.18 8.04
51.15 51.20 50.97 50.74 50.46 50.06 42.11 41.50 36.27 31.13 20.54 24.20 24.10 22.90 23.04 22.72 22.76 21.84 23.54 23.96 25.02 25.62 22.15 19.36 14.53 13.05 14.08 15.90 15.79 10.55 2.72 3.59 4.89 -4.06 -8.60 -3.58 5.40 5.47 3.51 3.28 1.20 7.00 5.75 7.58
50.75 50.97 50.92 50.90 50.55 50.43 43.84 41.84 40.69 34.19 25.00 19.67 24.69 21.92 21.90 21.94 17.48 19.19 22.68 26.31 26.27 23.76 21.47 15.69 0.80 3.99 6.41 7.60 12.01 15.94 16.50 5.88 2.24 -7.22 -8.79 -10.36 -3.66 0.32 1.82 10.47 2.86 7.52 7.53 6.75
50.67 50.77 50.78 50.74 50.70 48.92 44.67 41.94 41.71 36.36 27.05 25.18 23.96 19.53 23.03 26.99 22.39 21.46 20.92 22.89 22.28 22.64 16.39 11.38 6.68 4.89 12.67 3.92 1.55 3.10 4.65 0.98 -6.39 -6.82 -9.59 -0.39 1.25 3.62 6.66 -4.37 -1.25 7.23 7.24 6.63
50.50 50.62 50.60 50.47 48.20 46.88 45.21 41.54 42.24 37.40 29.34 28.25 28.25 29.68 27.68 26.36 27.30 21.12 21.98 19.45 19.30 18.02 8.65 9.55 9.91 7.07 4.49 3.04 3.15 0.68 -0.09 -5.11 -6.42 -8.67 -13.39 -6.23 7.69 6.35 -2.98 -1.47 2.91 3.62 6.47 6.49
50.33 50.25 49.28 48.28 47.83 47.61 44.96 38.87 40.53 40.45 33.80 28.14 31.20 32.45 33.46 33.33 32.83 29.37 27.78 20.39 20.59 19.29 10.48 8.28 9.20 8.06 -1.69 -1.28 3.15 6.76 1.63 0.45 -0.15 -4.78 -5.72 1.35 7.49 4.91 5.55 5.55 5.98 7.38 7.13 8.60
50.16 49.20 48.34 47.44 47.34 46.32 44.90 39.30 36.69 33.35 31.52 26.65 25.14 25.53 29.54 32.40 31.47 33.98 28.25 23.53 25.66 22.95 20.09 12.73 12.39 8.10 13.93 2.97 5.80 6.93 8.47 9.61 6.89 5.93 4.78 6.89 6.97 9.43 9.57 6.11 6.68 8.85 9.51 8.88
49.16 48.11 47.04 46.03 45.72 45.10 42.53 34.84 33.64 35.73 31.12 23.00 21.76 30.08 26.27 30.02 28.74 29.60 29.96 31.29 28.20 26.25 21.30 14.58 15.09 11.74 18.39 8.55 6.14 3.02 4.55 7.29 4.57 6.15 7.19 8.55 9.51 9.20 9.45 9.41 10.10 9.35 9.45 9.39
47.57 46.45 45.34 44.28 42.96 41.68 36.68 37.08 37.24 37.89 27.79 12.17 20.14 26.54 27.92 25.29 23.79 24.74 26.01 25.45 24.33 21.18 12.18 15.52 7.98 16.19 13.72 8.56 5.59 0.27 5.85 2.60 0.34 0.42 6.24 6.41 7.58 10.93 11.64 9.20 8.80 9.63 9.11 7.53
46.09 44.80 43.44 41.89 41.62 40.57 33.08 31.29 36.48 36.68 35.82 27.72 12.93 24.85 26.01 23.65 22.45 23.98 23.43 24.51 22.39 17.33 15.10 12.20 15.06 14.73 12.99 2.94 -2.17 4.21 6.53 8.57 8.62 4.98 8.84 9.11 11.33 11.47 11.36 9.26 9.80 9.95 9.39 8.33
44.23 42.87 41.99 42.53 40.49 33.94 28.87 26.54 33.45 36.37 34.91 26.15 15.42 12.00 20.41 19.53 22.03 19.66 19.83 21.18 19.13 19.32 13.53 12.43 8.73 6.22 7.57 1.39 -5.02 2.30 5.19 6.63 9.67 8.80 8.82 6.95 8.88 6.83 10.42 10.63 10.56 11.75 9.95 9.23
42.22 40.35 41.86 41.29 40.43 38.17 30.64 30.93 33.36 32.64 31.10 26.17 7.77 7.23 12.83 17.33 14.93 11.54 12.59 11.22 12.80 12.45 12.98 10.86 5.25 4.90 3.01 -5.44 0.63 2.67 3.83 4.98 5.81 5.26 8.58 9.14 10.11 9.84 8.95 9.97 9.58 7.74 7.24 7.27
40.43 40.66 40.02 33.05 29.30 25.88 28.81 37.01 32.25 24.26 23.43 7.83 1.56 -4.18 0.85 13.74 10.83 11.03 7.82 5.06 3.04 10.97 6.42 5.77 4.50 -3.58 -8.83 -3.23 -1.11 -0.04 2.16 1.05 1.39 4.46 6.01 7.24 6.93 7.20 7.53 7.35 7.05 5.81 5.79 5.68
39.51 32.64 28.10 19.82 27.13 36.61 34.85 22.27 16.06 10.70 5.15 3.88 -2.10 -0.94 0.49 7.11 3.65 0.64 -1.70 -9.84 -2.85 -1.51 3.60 3.85 -5.97 -6.08 0.55 0.97 2.22 1.46 1.45 2.56 2.91 -0.42 -0.39 2.04 2.99 4.87 5.33 5.48 6.75 7.14 6.94 6.64
27.74 19.50 17.11 27.29 30.78 24.14 13.18 3.76 3.54 -2.28 -2.88 0.88 -1.39 -1.73 -2.66 5.82 -2.43 -5.82 -4.87 -9.29 -4.62 -0.84 2.48 -5.04 -10.28 -10.39 -3.94 0.45 -0.12 1.05 2.01 1.97 1.96 2.67 3.36 4.13 4.04 4.14 4.86 5.35 6.39 7.42 7.92 7.20
29.44 27.64 26.89 20.95 10.94 5.23 4.66 -10.97 -2.62 -2.16 -4.50 -2.22 -6.93 -1.96 -2.38 -0.74 5.72 -3.90 0.15 -2.83 3.70 -5.06 4.48 -7.70 -14.60 -5.13 -1.75 -1.10 -1.19 0.45 1.10 0.85 0.72 2.05 1.57 3.22 3.67 4.44 5.37 6.43 6.41 7.13 8.31 9.00
27.72 20.16 12.27 10.92 4.30 1.69 -3.76 -10.88 -6.42 -5.59 -1.28 -7.30 -3.31 -4.10 -7.45 -0.21 2.37 -2.65 -4.01 -2.28 -1.68 4.71 -8.33 -12.24 -9.70 -4.46 -2.21 -2.02 -0.48 -0.44 0.91 0.92 1.06 1.14 2.47 3.03 3.28 5.02 5.20 5.57 7.29 7.89 7.42 8.58
16.41 13.97 6.81 1.87 -0.66 0.11 -1.07 -2.69 -6.48 -1.38 -7.87 -2.17 -1.74 -11.52 -8.45 -4.24 -2.70 -1.66 -8.06 -2.83 -1.89 -10.29 -18.40 -16.88 -10.85 -7.91 -4.25 -2.27 -1.20 -2.28 -2.53 -0.50 -0.31 0.05 0.31 0.33 1.91 3.00 5.29 6.71 7.32 7.42 6.74 7.93
12.09 12.75 3.24 2.84 4.69 0.89 -5.83 -6.91 -4.88 -5.89 -13.24 -8.51 -10.86 -6.92 -6.83 -6.63 -7.68 -9.66 -8.94 -16.39 -23.00 -16.87 -17.86 -12.48 -6.27 -7.68 -11.00 -5.71 -7.83 -5.75 -4.09 -1.69 -0.59 -0.79 -0.77 -0.33 1.02 1.96 3.56 6.05 6.92 7.51 7.86 7.80
8.49 4.30 4.74 6.87 2.95 -3.92 -4.00 -10.21 -9.46 -6.87 -7.60 -9.04 -6.58 -15.20 -14.85 -16.92 -20.15 -20.30 -25.40 -28.19 -28.34 -19.98 -18.37 -11.02 -5.10 -10.08 -18.08 -9.85 -9.14 -4.71 -6.15 -2.18 -1.16 -1.32 -1.00 -0.32 0.20 1.80 3.67 5.31 6.48 7.07 8.06 7.00
4.74 0.64 4.57 2.81 -0.30 -3.34 -2.40 -3.12 -3.36 -3.58 -6.78 -14.22 -17.13 -19.92 -19.63 -17.23 -24.65 -25.50 -22.29 -26.51 -18.06 -13.66 -7.65 -5.80 -11.87 -13.82 -12.31 -9.60 -4.54 -7.71 -4.93 -2.51 -2.96 -2.71 -1.96 -1.39 1.07 3.39 2.29 2.03 4.52 6.41 7.85 7.66
MSLP
1022.55 1021.84 1021.16 1020.39 1019.50 1018.30 1017.46 1018.21 1017.86 1016.72 1015.93 1016.98 1018.35 1019.29 1019.12 1018.28 1017.25 1017.07 1017.04 1017.10 1017.15 1017.26 1016.95 1016.10 1015.70 1014.61 1013.35 1011.88 1011.34 1010.08 1009.40 1008.74 1007.38 1007.28 1008.29 1008.73 1008.61 1008.78 1007.28 1005.57 1003.89 1003.70 1006.17 1011.38
1022.48 1021.73 1021.12 1020.43 1019.74 1018.96 1018.98 1019.76 1019.32 1017.39 1017.07 1019.10 1019.92 1020.00 1019.34 1018.66 1017.73 1017.28 1016.96 1017.18 1017.22 1017.13 1017.30 1016.94 1015.75 1014.66 1012.82 1012.32 1011.84 1010.96 1010.46 1009.74 1008.93 1007.94 1009.22 1009.47 1010.48 1010.95 1009.73 1007.99 1006.79 1007.32 1008.65 1013.14
1022.45 1021.73 1021.14 1020.53 1020.03 1019.37 1019.92 1020.56 1020.48 1019.33 1019.40 1020.10 1020.69 1020.61 1019.80 1018.82 1017.97 1017.48 1017.33 1017.21 1017.20 1017.53 1017.24 1016.80 1015.95 1015.18 1013.46 1012.72 1012.29 1011.39 1011.24 1011.70 1011.54 1012.34 1013.78 1013.97 1013.47 1012.69 1011.30 1009.03 1009.32 1010.56 1012.76 1014.79
1022.34 1021.73 1021.04 1020.51 1020.09 1019.68 1020.20 1021.35 1021.96 1021.63 1021.13 1020.55 1021.02 1020.92 1020.22 1019.20 1018.64 1018.02 1017.61 1017.34 1017.46 1017.71 1017.48 1016.73 1016.04 1015.11 1014.51 1012.99 1012.75 1012.72 1012.96 1013.25 1013.55 1013.81 1014.15 1014.59 1015.66 1015.55 1014.73 1013.35 1013.40 1013.41 1015.99 1017.10
1022.24 1021.63 1021.09 1020.52 1020.03 1019.97 1020.65 1021.66 1022.06 1021.78 1021.32 1021.20 1021.12 1020.64 1020.11 1019.58 1018.94 1018.65 1017.85 1017.82 1017.21 1017.27 1017.39 1016.99 1016.27 1015.95 1015.19 1014.71 1013.85 1014.53 1014.34 1014.46 1014.44 1014.72 1014.71 1015.25 1016.26 1017.41 1017.49 1017.29 1017.33 1017.31 1017.59 1018.52
1022.10 1021.51 1020.90 1020.38 1020.05 1020.03 1020.68 1021.20 1021.32 1021.47 1021.00 1021.13 1021.20 1020.47 1019.87 1019.45 1019.27 1018.12 1017.69 1017.32 1016.89 1016.35 1015.95 1015.64 1014.96 1015.27 1015.15 1015.28 1015.80 1015.84 1015.97 1016.09 1015.85 1015.63 1015.49 1015.59 1016.62 1018.61 1019.38 1020.10 1020.68 1020.64 1020.60 1020.93
1021.69 1021.10 1020.51 1020.05 1019.67 1019.63 1019.90 1020.26 1020.73 1021.06 1020.91 1020.78 1020.51 1020.11 1019.92 1019.51 1019.25 1018.79 1017.61 1017.24 1017.09 1015.79 1015.01 1014.39 1014.14 1014.84 1015.22 1015.63 1016.45 1016.82 1017.02 1016.94 1017.04 1017.65 1017.53 1018.90 1020.08 1020.51 1020.88 1021.63 1022.19 1022.32 1022.37 1021.92
1021.40 1020.83 1020.23 1019.65 1019.22 1019.02 1019.58 1019.80 1020.41 1020.65 1020.38 1019.92 1019.66 1019.70 1019.59 1019.11 1018.60 1018.35 1017.62 1016.77 1016.19 1015.82 1015.36 1015.42 1015.53 1015.76 1016.11 1016.37 1016.90 1017.44 1017.57 1018.12 1018.73 1019.59 1020.78 1021.60 1021.58 1022.01 1022.40 1022.46 1023.10 1023.01 1022.54 1022.07
1021.14 1020.55 1019.98 1019.43 1018.96 1018.53 1018.95 1019.24 1019.55 1020.10 1020.49 1019.54 1019.32 1019.43 1019.25 1019.30 1018.87 1018.15 1017.24 1016.69 1016.19 1016.25 1016.51 1017.04 1017.98 1018.45 1018.32 1018.04 1017.77 1017.69 1018.14 1019.18 1020.08 1021.36 1022.29 1022.96 1023.38 1023.04 1022.94 1022.96 1023.63 1023.84 1023.36 1022.55
1020.81 1020.15 1019.60 1019.06 1018.55 1018.27 1018.65 1018.82 1019.09 1019.54 1019.75 1019.16 1019.10 1019.13 1019.13 1019.04 1018.88 1018.67 1017.94 1017.37 1016.92 1016.98 1017.68 1018.47 1019.43 1019.66 1019.41 1019.99 1020.40 1020.02 1020.37 1021.19 1022.52 1023.25 1024.07 1023.62 1023.92 1023.75 1023.34 1024.25 1025.66 1024.63 1024.38 1024.01
1020.35 1019.76 1019.20 1018.68 1018.67 1018.58 1018.55 1018.41 1018.71 1019.15 1019.24 1018.70 1018.62 1018.64 1018.57 1018.48 1018.59 1018.18 1017.75 1017.99 1017.91 1018.11 1018.95 1019.83 1020.32 1020.77 1020.63 1021.20 1021.59 1022.19 1022.97 1023.87 1024.16 1024.75 1025.03 1024.97 1024.30 1023.92 1024.73 1026.12 1025.42 1025.30 1025.02 1024.60
1019.88 1019.39 1018.96 1018.74 1018.49 1018.24 1018.31 1018.57 1018.49 1018.73 1019.35 1018.62 1018.29 1017.96 1017.69 1017.65 1017.86 1017.97 1017.88 1018.23 1018.49 1018.72 1019.47 1020.48 1020.86 1021.13 1021.48 1021.45 1022.56 1022.91 1023.88 1024.69 1025.24 1025.64 1025.64 1025.68 1025.66 1025.81 1026.30 1026.37 1026.02 1025.10 1025.16 1024.82
1019.47 1019.03 1018.70 1018.52 1018.23 1018.08 1018.12 1018.43 1018.77 1019.12 1019.07 1018.43 1018.39 1017.94 1017.69 1017.45 1017.64 1017.74 1017.84 1017.95 1017.94 1018.67 1019.11 1020.26 1020.83 1021.00 1020.74 1021.74 1022.65 1023.42 1024.44 1024.74 1024.97 1025.39 1026.02 1025.85 1026.08 1026.06 1026.18 1026.23 1026.16 1025.84 1025.28 1024.64
1019.03 1018.95 1018.80 1018.55 1018.25 1018.00 1017.93 1018.61 1018.84 1018.84 1019.13 1019.30 1018.58 1017.95 1017.99 1017.85 1017.75 1017.56 1017.75 1017.97 1018.21 1018.33 1019.28 1020.09 1020.67 1020.96 1020.69 1022.30 1023.69 1025.08 1026.53 1025.99 1026.05 1025.87 1026.03 1026.02 1026.06 1026.13 1026.13 1025.89 1025.73 1025.44 1025.10 1024.83
1018.79 1018.49 1018.25 1017.96 1017.64 1017.60 1018.30 1018.78 1019.03 1018.71 1019.29 1019.48 1019.03 1018.62 1018.50 1018.48 1018.29 1017.90 1017.80 1018.05 1018.38 1018.93 1019.93 1020.53 1021.14 1021.32 1022.09 1023.96 1025.40 1027.36 1027.94 1027.94 1027.61 1027.07 1027.23 1027.08 1026.37 1026.17 1026.07 1025.93 1025.67 1025.36 1024.99 1024.73
1018.46 1018.16 1017.76 1017.67 1017.64 1017.82 1018.25 1018.67 1019.27 1019.33 1019.42 1019.64 1019.86 1019.64 1019.44 1019.26 1018.91 1018.68 1018.57 1018.66 1019.00 1019.56 1020.09 1021.07 1022.09 1023.33 1023.22 1025.33 1027.53 1029.17 1029.14 1028.83 1028.52 1028.25 1027.69 1027.14 1026.71 1026.50 1026.32 1026.06 1025.77 1025.45 1025.16 1024.91
1018.25 1017.98 1017.79 1017.41 1017.82 1018.32 1018.81 1019.33 1019.15 1018.99 1019.40 1020.24 1020.88 1021.01 1020.73 1020.52 1020.15 1020.00 1019.93 1019.82 1020.15 1020.40 1021.33 1022.36 1024.09 1025.20 1025.72 1027.89 1029.69 1030.37 1030.05 1029.57 1028.89 1028.71 1027.98 1027.35 1027.14 1026.94 1026.57 1026.23 1025.84 1025.52 1025.26 1025.05
1017.91 1017.92 1018.00 1018.10 1018.14 1018.43 1018.99 1019.54 1019.32 1018.97 1019.56 1020.88 1022.77 1023.07 1022.47 1022.52 1022.42 1022.31 1021.92 1021.79 1021.59 1022.16 1022.78 1024.37 1025.96 1027.40 1028.73 1030.69 1031.54 1031.39 1031.01 1030.30 1029.68 1029.38 1028.76 1028.23 1027.69 1027.20 1026.79 1026.42 1026.02 1025.61 1025.29 1024.98
1017.73 1017.92 1018.32 1018.77 1019.25 1019.61 1019.80 1019.31 1019.63 1020.35 1021.64 1023.52 1025.74 1026.87 1026.06 1024.52 1024.52 1024.28 1023.66 1023.64 1023.62 1023.77 1024.57 1026.34 1027.71 1030.32 1032.00 1033.00 1032.72 1032.36 1031.94 1031.61 1030.97 1030.07 1029.31 1028.63 1028.08 1027.61 1027.13 1026.68 1026.21 1025.89 1025.49 1025.12
1017.76 1018.05 1018.82 1019.67 1020.09 1019.59 1019.56 1019.89 1020.77 1022.26 1024.95 1026.31 1029.09 1029.45 1028.51 1027.78 1027.16 1026.19 1026.32 1026.18 1025.70 1025.95 1026.93 1027.71 1029.94 1032.77 1033.75 1033.88 1033.52 1033.28 1032.73 1032.14 1031.54 1030.76 1029.80 1029.20 1028.55 1028.00 1027.42 1026.94 1026.47 1026.01 1025.58 1025.11
1018.48 1019.23 1019.72 1019.97 1019.91 1020.44 1022.04 1023.62 1025.10 1027.23 1029.26 1030.43 1031.00 1030.98 1030.44 1028.84 1029.15 1028.87 1028.86 1028.48 1027.17 1027.04 1028.08 1029.30 1031.93 1033.80 1034.62 1034.42 1034.09 1033.72 1033.14 1032.56 1032.02 1031.52 1030.80 1030.06 1029.36 1028.53 1027.73 1027.03 1026.49 1025.98 1025.49 1025.03
1018.73 1019.34 1020.23 1020.81 1022.41 1023.96 1025.41 1028.48 1029.53 1030.58 1032.21 1032.46 1032.37 1031.98 1031.51 1030.36 1029.60 1029.62 1029.24 1029.13 1028.14 1028.63 1029.32 1031.12 1033.62 1035.01 1035.11 1034.92 1034.53 1034.07 1033.49 1032.83 1032.24 1031.67 1031.00 1030.16 1029.41 1028.69 1027.95 1027.25 1026.63 1026.05 1025.51 1024.96
1019.20 1020.16 1022.29 1023.84 1026.19 1028.23 1030.45 1032.32 1033.05 1033.28 1033.47 1033.76 1033.68 1033.26 1032.14 1031.05 1030.65 1030.36 1030.47 1030.06 1030.14 1030.10 1031.69 1033.83 1035.36 1035.95 1035.73 1035.39 1034.94 1034.47 1033.87 1033.16 1032.46 1031.76 1031.08 1030.32 1029.49 1028.67 1028.06 1027.34 1026.62 1026.03 1025.50 1025.02
1021.14 1023.04 1025.58 1027.75 1029.95 1031.84 1033.18 1034.32 1034.84 1034.60 1034.57 1034.66 1034.77 1034.54 1033.76 1032.59 1032.09 1031.88 1032.02 1032.45 1032.09 1033.12 1034.54 1035.83 1036.38 1036.53 1036.40 1035.98 1035.46 1035.01 1034.28 1033.51 1032.82 1032.18 1031.43 1030.64 1029.80 1028.90 1028.06 1027.40 1026.72 1026.10 1025.53 1025.05
1023.98 1025.42 1028.62 1030.46 1031.92 1033.05 1034.25 1035.01 1035.34 1035.28 1035.36 1035.38 1035.36 1035.21 1035.03 1034.36 1034.20 1034.69 1034.60 1035.36 1036.19 1036.62 1037.01 1037.14 1037.20 1037.08 1036.87 1036.49 1035.97 1035.38 1034.68 1033.80 1033.09 1032.55 1031.84 1030.98 1030.08 1029.17 1028.23 1027.43 1026.81 1026.19 1025.62 1025.21
1026.89 1028.82 1030.34 1031.52 1032.43 1033.98 1034.84 1035.31 1035.52 1035.38 1035.42 1035.34 1035.78 1036.37 1036.56 1037.18 1037.28 1037.65 1038.31 1038.71 1038.88 1038.43 1038.13 1037.69 1037.39 1037.34 1037.25 1036.95 1036.21 1035.45 1034.86 1034.12 1033.42 1032.79 1032.08 1031.23 1030.28 1029.37 1028.50 1027.63 1026.96 1026.35 1025.86 1025.51
1029.10 1031.07 1031.68 1032.36 1033.24 1034.42 1035.12 1035.57 1035.37 1034.95 1035.51 1036.60 1037.03 1038.19 1038.72 1038.71 1039.08 1039.48 1039.54 1039.66 1039.24 1038.53 1037.90 1037.56 1037.64 1037.62 1037.23 1036.65 1036.12 1035.59 1035.05 1034.36 1033.71 1032.95 1032.15 1031.29 1030.32 1029.37 1028.62 1027.85 1027.16 1026.63 1026.15 1025.76
Wind_Speed
24 25 26 25 27 29 10 3 4 5 6 7 3 3 5 8 5 4 3 3 4 3 14 5 4 5 5 15 17 15 1 4 6 4 9 13 19 9 5 3 5 4 4 4
21 23 25 24 23 25 3 2 4 4 5 5 3 5 4 3 4 5 3 3 2 3 6 7 5 5 8 9 11 14 9 5 7 8 2 9 8 18 13 8 4 5 3 5
20 21 22 24 17 22 5 3 5 5 5 2 3 4 3 6 6 5 3 4 3 8 6 5 7 7 8 18 7 20 5 6 4 4 3 5 9 21 22 4 6 4 7 7
21 21 22 23 10 16 4 4 2 1 6 3 2 1 3 8 6 3 3 4 3 9 5 6 3 7 14 10 6 7 4 2 4 9 10 9 15 15 19 21 13 6 6 8
21 20 20 22 12 5 3 1 2 2 4 4 6 2 3 5 5 4 5 1 15 4 4 7 18 15 3 5 9 5 6 2 5 7 7 6 9 17 14 15 15 12 7 6
20 21 20 19 12 3 1 2 2 2 4 3 2 3 3 8 11 6 6 7 6 8 6 12 20 11 10 5 2 5 3 0 2 1 5 7 6 12 8 5 10 4 8 6
20 20 19 18 17 7 3 3 2 1 5 2 5 4 10 9 8 7 10 5 3 7 16 12 2 2 3 4 1 0 4 3 1 2 4 5 4 4 5 9 4 5 3 8
22 20 19 19 18 12 2 2 2 2 5 4 6 1 5 9 7 4 5 4 6 7 6 6 7 6 8 2 2 4 3 2 3 4 3 2 3 3 2 3 1 8 10 11
22 20 20 20 19 13 3 3 3 2 1 4 2 3 2 4 5 5 5 5 4 5 3 4 3 1 4 7 11 3 5 5 5 5 5 3 6 7 3 2 0 9 10 14
22 21 20 19 19 7 3 2 4 1 2 4 2 2 3 3 3 4 5 7 6 4 4 3 2 4 2 3 4 6 6 5 3 3 2 3 3 8 2 5 4 9 8 9
21 20 19 15 6 2 2 2 6 3 2 5 5 2 2 3 3 2 3 4 3 3 4 2 2 1 4 2 2 0 1 2 2 1 5 4 11 2 7 5 5 4 5 5
20 19 7 8 9 7 3 2 2 1 3 6 3 6 8 6 6 4 2 2 2 3 3 0 0 3 1 3 4 0 2 2 1 4 4 3 4 4 1 2 5 6 7 8
18 12 13 15 13 6 6 1 2 1 3 4 3 1 4 3 1 2 4 2 3 2 4 3 2 5 3 2 1 3 3 8 3 2 1 3 1 2 3 2 4 7 8 10
13 14 15 16 16 12 5 2 1 1 1 3 5 3 2 4 6 2 2 3 2 3 2 2 3 2 1 3 4 5 5 7 8 2 5 3 4 4 4 8 6 8 8 8
12 14 16 17 14 5 5 2 2 2 3 4 4 2 3 4 6 5 3 3 1 1 2 2 3 3 3 4 5 6 6 4 4 3 7 5 6 6 7 9 8 10 10 10
12 15 14 10 5 10 3 2 2 3 2 2 3 3 4 6 6 6 5 3 1 2 3 1 4 4 2 4 4 7 10 9 5 4 10 10 5 8 8 7 9 10 6 8
13 11 8 8 8 4 3 2 2 6 1 1 4 5 4 6 4 3 3 4 2 3 2 4 4 6 6 4 4 11 11 12 7 11 9 4 6 6 9 8 9 10 8 6
11 2 7 12 14 10 4 3 7 1 2 3 2 5 4 7 4 5 3 3 3 5 3 4 4 4 5 5 8 10 11 11 6 13 10 7 8 7 7 6 7 9 8 9
4 5 7 4 5 3 1 4 9 5 5 4 4 3 5 8 3 3 4 3 3 2 4 4 4 3 7 7 9 11 10 9 11 13 10 9 7 8 9 8 8 7 9 8
8 4 3 3 2 7 2 7 5 7 6 6 4 1 4 4 4 4 4 3 1 3 3 4 5 3 1 8 6 8 10 11 10 9 12 13 12 10 10 8 8 7 8 8
3 3 2 2 7 4 5 4 6 4 6 4 2 2 2 2 1 3 2 2 3 2 3 5 3 2 4 8 7 7 9 10 10 8 9 9 9 9 9 9 8 8 8 8
4 4 4 4 7 5 8 2 5 7 1 4 3 4 2 5 1 2 3 2 3 3 3 5 3 3 5 6 9 9 9 10 11 10 11 11 11 10 9 8 8 7 8 8
3 5 6 5 5 12 7 6 6 5 5 3 5 7 1 4 2 2 2 4 3 3 5 3 2 3 6 5 8 10 10 10 10 12 12 12 12 11 8 9 8 8 7 6
6 5 7 5 5 3 2 3 3 4 1 6 7 3 1 2 4 2 3 3 5 4 4 0 1 3 7 6 8 7 12 11 11 11 12 12 12 12 11 8 8 7 7 7
6 5 5 4 2 3 0 1 2 3 2 2 3 2 1 3 4 3 4 7 4 2 1 2 5 3 4 6 6 6 8 10 9 10 11 12 12 10 10 9 8 7 6 6
5 8 4 4 3 2 3 1 3 2 2 1 2 1 5 4 3 6 0 5 3 4 3 4 4 3 5 5 7 6 6 8 9 10 10 11 10 11 10 9 8 7 7 6
5 3 3 4 4 3 2 1 3 2 3 2 3 6 4 2 5 4 1 5 4 4 6 2 3 4 6 6 7 6 7 8 9 10 10 10 10 9 7 9 9 8 7 6
Wind_Direction
342 344 349 351 348 347 7 26 39 318 356 45 29 11 300 308 284 341 307 284 250 282 324 296 294 293 271 336 333 337 340 291 301 1 112 103 75 351 320 319 359 79 58 92
343 343 347 349 348 355 349 26 291 319 55 54 8 309 307 288 306 323 315 287 268 338 301 320 254 303 282 323 331 350 336 345 312 345 22 38 27 3 335 228 268 35 75 132
339 342 346 348 351 352 73 45 0 329 31 96 105 330 277 325 302 286 294 260 302 321 293 229 287 301 304 322 310 351 7 11 44 102 179 296 1 1 5 338 45 70 49 84
339 339 342 343 352 355 81 25 287 139 310 332 348 225 278 331 343 296 314 316 296 329 296 305 265 295 321 311 318 358 68 132 96 139 156 75 48 21 16 36 5 54 81 74
335 334 338 340 2 23 71 13 17 331 277 294 325 305 282 315 293 239 290 244 317 301 215 212 303 310 296 261 323 6 352 303 165 207 219 87 61 36 31 36 13 36 53 73
331 331 331 335 0 89 158 197 248 242 282 292 332 263 270 311 316 268 232 282 301 306 273 298 287 278 244 226 33 303 53 61 45 202 259 284 5 5 44 74 34 352 29 318
327 326 325 327 332 209 156 171 184 191 267 218 269 267 304 299 287 268 294 304 283 276 308 292 260 200 55 123 70 301 311 39 43 249 18 47 264 42 98 115 58 35 344 342
324 324 322 322 323 321 180 145 165 220 265 238 293 213 265 303 276 271 261 256 236 307 322 1 360 346 4 311 117 7 85 95 13 84 79 256 342 349 2 10 45 21 348 349
322 322 320 319 321 335 138 183 152 188 321 255 304 295 275 292 302 313 255 304 313 3 13 51 69 318 260 316 332 63 30 81 98 24 89 153 220 280 258 209 236 10 357 349
322 322 320 320 321 166 155 197 160 156 228 274 136 232 302 269 263 256 300 322 348 16 9 43 40 295 212 319 300 333 334 0 80 7 81 313 317 298 281 65 278 345 342 335
320 321 323 338 89 235 221 236 177 182 218 268 211 246 253 267 236 267 287 354 337 15 50 78 296 221 269 2 218 229 47 21 330 47 53 329 349 18 83 244 313 292 326 314
319 325 8 340 326 303 175 244 148 128 223 248 227 239 265 227 266 288 212 209 215 188 85 303 92 266 352 177 278 150 360 157 283 141 224 238 336 96 222 248 289 323 319 323
320 337 333 335 336 338 338 233 144 120 253 302 353 355 352 60 340 257 287 260 164 162 166 174 232 247 159 241 53 108 28 15 13 193 110 124 109 72 18 278 274 304 306 317
336 334 335 335 329 322 350 168 185 219 56 282 279 317 18 337 3 5 113 321 347 117 115 181 226 230 21 63 73 71 348 340 331 108 47 254 188 51 341 339 330 328 326 318
332 336 333 330 328 29 97 83 29 45 126 218 274 312 339 354 347 307 297 227 233 104 31 234 249 41 36 70 76 55 355 352 341 330 9 303 296 350 349 338 333 331 323 329
333 335 336 340 50 126 78 122 49 4 359 289 322 297 356 335 341 18 14 10 10 145 150 129 56 33 3 82 79 26 5 346 38 333 315 294 302 314 360 327 326 317 333 319
337 338 350 97 98 78 89 107 306 344 120 259 318 337 354 332 327 2 2 10 28 27 59 61 58 22 38 52 48 352 353 342 356 350 333 346 1 319 320 321 320 320 305 295
336 20 99 97 107 114 46 344 11 82 132 54 52 293 28 8 339 322 353 355 9 23 71 63 60 32 45 63 353 355 353 338 352 341 332 322 317 320 321 320 322 329 330 327
357 134 105 61 38 41 280 8 68 48 60 103 72 64 301 353 351 290 339 13 29 316 69 58 75 41 47 335 348 346 345 347 326 328 333 341 341 335 333 329 331 330 326 324
104 65 64 20 332 303 53 17 27 22 352 25 76 285 310 18 351 301 345 10 56 59 50 90 74 91 125 353 331 339 337 335 338 342 344 340 339 337 335 328 318 315 317 314
47 64 132 239 345 50 26 42 57 335 30 12 295 118 279 330 39 273 73 281 255 75 84 92 66 74 353 342 336 333 337 335 332 324 317 323 320 320 321 325 321 319 321 324
151 125 74 44 37 31 70 355 343 48 52 332 10 306 231 300 344 57 325 303 348 71 63 72 69 45 312 338 335 331 335 334 332 332 326 325 326 322 317 315 315 316 314 319
61 52 52 31 329 43 54 342 332 352 351 348 348 318 318 321 37 299 24 9 25 69 48 74 85 332 335 326 335 340 336 334 334 336 338 334 328 327 325 319 319 318 316 319
62 46 41 55 19 75 158 182 216 272 13 339 327 280 326 300 352 333 36 346 27 52 50 55 251 327 338 333 333 333 335 336 333 337 332 329 330 324 321 324 322 325 329 329
66 44 59 68 125 57 241 261 332 278 206 8 349 302 99 325 45 21 25 22 26 70 209 283 321 285 309 309 325 304 325 330 329 333 328 324 323 322 319 327 325 332 332 344
66 42 86 129 107 350 360 321 268 237 281 37 61 27 39 5 103 45 12 99 225 255 246 266 301 298 294 293 308 301 303 318 329 323 320 317 319 321 318 317 331 337 343 344
63 60 29 70 78 150 258 263 268 296 46 56 80 57 234 321 37 6 157 176 228 253 294 257 279 274 292 302 307 310 319 322 325 319 318 312 310 315 328 338 330 331 339 333